contact:dominique.lefevre@mio.osupytheas.fr, maurice.libes@osupytheas.fr, didier.mallarino@osupytheas.fr
Project:EMSO http://www.emso-fr.org/EMSO-France
Depth: 2436.0 m
Title:EMSO Ligure Ouest : Data MII capteur CSTAR
DateTime,Latitude,Longitude,Instrument_Serial,Reference_Counts,Signal_Counts,Corrected_Signal_raw_counts,Calculated_Beam_c_inverse_meters,Internal_thermistor_counts
DateTime,Latitude,Longitude,Instrument_Serial,Reference_Counts,Signal_Counts,Corrected_Signal_raw_counts,Calculated_Beam_c_inverse_meters,Internal_thermistor_counts
2023-11-22T00:02:06,42.805,6.029,CST-1368DR,4104,4365,11270,01.305,553
2023-11-22T00:05:07,42.805,6.029,CST-1368DR,4104,4364,11268,01.305,553
2023-11-22T00:08:09,42.805,6.029,CST-1368DR,4104,4364,11269,01.305,553
2023-11-22T00:11:10,42.805,6.029,CST-1368DR,4104,4361,11260,01.308,553
2023-11-22T00:14:12,42.805,6.029,CST-1368DR,4104,4365,11270,01.305,553
2023-11-22T00:17:14,42.805,6.029,CST-1368DR,4104,4362,11262,01.307,553
2023-11-22T00:20:15,42.805,6.029,CST-1368DR,4104,4364,11268,01.305,553
2023-11-22T00:23:17,42.805,6.029,CST-1368DR,4104,4362,11262,01.307,553
2023-11-22T00:26:18,42.805,6.029,CST-1368DR,4104,4362,11262,01.307,553
2023-11-22T00:29:20,42.805,6.029,CST-1368DR,4104,4361,11261,01.308,553
2023-11-22T00:32:21,42.805,6.029,CST-1368DR,4104,4364,11268,01.305,553
2023-11-22T00:35:23,42.805,6.029,CST-1368DR,4104,4361,11261,01.308,553
2023-11-22T00:38:25,42.805,6.029,CST-1368DR,4104,4363,11265,01.306,553
2023-11-22T00:41:26,42.805,6.029,CST-1368DR,4104,4361,11259,01.309,553
2023-11-22T00:44:28,42.805,6.029,CST-1368DR,4104,4362,11264,01.307,553
2023-11-22T00:47:29,42.805,6.029,CST-1368DR,4104,4361,11261,01.308,553
2023-11-22T00:50:31,42.805,6.029,CST-1368DR,4104,4363,11266,01.306,553
2023-11-22T00:53:33,42.805,6.029,CST-1368DR,4104,4360,11259,01.309,553
2023-11-22T00:56:34,42.805,6.029,CST-1368DR,4104,4364,11267,01.306,552
2023-11-22T00:59:36,42.805,6.029,CST-1368DR,4104,4364,11269,01.305,553
2023-11-22T01:02:37,42.805,6.029,CST-1368DR,4104,4363,11265,01.306,553
2023-11-22T01:05:39,42.805,6.029,CST-1368DR,4104,4362,11262,01.307,553
2023-11-22T01:08:40,42.805,6.029,CST-1368DR,4104,4363,11265,01.306,553
2023-11-22T01:11:42,42.805,6.029,CST-1368DR,4104,4369,11281,01.301,553
2023-11-22T01:14:44,42.805,6.029,CST-1368DR,4104,4365,11271,01.304,553
2023-11-22T01:17:45,42.805,6.029,CST-1368DR,4104,4364,11269,01.305,553
2023-11-22T01:20:47,42.805,6.029,CST-1368DR,4104,4364,11268,01.305,553
2023-11-22T01:23:48,42.805,6.029,CST-1368DR,4104,4364,11267,01.306,553
2023-11-22T01:26:50,42.805,6.029,CST-1368DR,4104,4363,11265,01.306,553
2023-11-22T01:29:51,42.805,6.029,CST-1368DR,4104,4365,11270,01.305,553
2023-11-22T01:32:53,42.805,6.029,CST-1368DR,4104,4362,11262,01.307,553
2023-11-22T01:35:55,42.805,6.029,CST-1368DR,4104,4363,11266,01.306,553
2023-11-22T01:38:56,42.805,6.029,CST-1368DR,4104,4365,11270,01.305,553
2023-11-22T01:41:58,42.805,6.029,CST-1368DR,4104,4364,11268,01.305,553
2023-11-22T01:44:59,42.805,6.029,CST-1368DR,4104,4361,11261,01.308,553
2023-11-22T01:48:01,42.805,6.029,CST-1368DR,4104,4366,11272,01.304,553
2023-11-22T01:51:03,42.805,6.029,CST-1368DR,4104,4363,11266,01.306,552
2023-11-22T01:54:04,42.805,6.029,CST-1368DR,4104,4363,11265,01.306,553
2023-11-22T01:57:06,42.805,6.029,CST-1368DR,4104,4365,11270,01.305,553
2023-11-22T02:00:07,42.805,6.029,CST-1368DR,4104,4363,11264,01.307,553
2023-11-22T02:03:09,42.805,6.029,CST-1368DR,4104,4362,11263,01.307,553
2023-11-22T02:06:10,42.805,6.029,CST-1368DR,4104,4358,11253,01.311,553
2023-11-22T02:09:12,42.805,6.029,CST-1368DR,4104,4362,11262,01.307,553
2023-11-22T02:12:14,42.805,6.029,CST-1368DR,4104,4362,11262,01.307,553
2023-11-22T02:15:15,42.805,6.029,CST-1368DR,4104,4363,11265,01.306,553
2023-11-22T02:18:17,42.805,6.029,CST-1368DR,4104,4362,11262,01.307,553
2023-11-22T02:21:18,42.805,6.029,CST-1368DR,4104,4363,11266,01.306,553
2023-11-22T02:24:20,42.805,6.029,CST-1368DR,4104,4362,11264,01.307,553
2023-11-22T02:27:21,42.805,6.029,CST-1368DR,4104,4360,11257,01.309,553
2023-11-22T02:30:23,42.805,6.029,CST-1368DR,4104,4361,11261,01.308,553
2023-11-22T02:33:25,42.805,6.029,CST-1368DR,4104,4362,11262,01.307,553
2023-11-22T02:36:26,42.805,6.029,CST-1368DR,4104,4363,11264,01.307,553
2023-11-22T02:39:28,42.805,6.029,CST-1368DR,4104,4362,11264,01.307,553
2023-11-22T02:42:29,42.805,6.029,CST-1368DR,4104,4362,11262,01.307,553
2023-11-22T02:45:31,42.805,6.029,CST-1368DR,4104,4364,11268,01.305,553
2023-11-22T02:48:33,42.805,6.029,CST-1368DR,4104,4362,11264,01.307,553
2023-11-22T02:51:34,42.805,6.029,CST-1368DR,4104,4363,11264,01.307,553
2023-11-22T02:54:36,42.805,6.029,CST-1368DR,4104,4362,11264,01.307,553
2023-11-22T02:57:37,42.805,6.029,CST-1368DR,4104,4363,11265,01.306,553
2023-11-22T03:00:39,42.805,6.029,CST-1368DR,4104,4362,11263,01.307,553
2023-11-22T03:03:40,42.805,6.029,CST-1368DR,4104,4362,11264,01.307,553
2023-11-22T03:06:42,42.805,6.029,CST-1368DR,4104,4361,11261,01.308,553
2023-11-22T03:09:44,42.805,6.029,CST-1368DR,4104,4365,11270,01.305,553
2023-11-22T03:12:45,42.805,6.029,CST-1368DR,4104,4362,11262,01.307,553
2023-11-22T03:15:47,42.805,6.029,CST-1368DR,4104,4361,11260,01.308,553
2023-11-22T03:18:48,42.805,6.029,CST-1368DR,4104,4361,11261,01.308,553
2023-11-22T03:21:50,42.805,6.029,CST-1368DR,4104,4364,11267,01.306,553
2023-11-22T03:24:51,42.805,6.029,CST-1368DR,4104,4364,11268,01.305,553
2023-11-22T03:27:53,42.805,6.029,CST-1368DR,4104,4366,11274,01.303,553
2023-11-22T03:30:55,42.805,6.029,CST-1368DR,4104,4365,11270,01.305,553
2023-11-22T03:33:56,42.805,6.029,CST-1368DR,4104,4366,11272,01.304,553
2023-11-22T03:36:58,42.805,6.029,CST-1368DR,4104,4362,11264,01.307,553
2023-11-22T03:39:59,42.805,6.029,CST-1368DR,4104,4362,11262,01.307,553
2023-11-22T03:43:01,42.805,6.029,CST-1368DR,4104,4365,11270,01.305,553
2023-11-22T03:46:03,42.805,6.029,CST-1368DR,4104,4363,11265,01.306,553
2023-11-22T03:49:04,42.805,6.029,CST-1368DR,4104,4360,11259,01.309,553
2023-11-22T03:52:06,42.805,6.029,CST-1368DR,4104,4365,11270,01.305,553
2023-11-22T03:55:07,42.805,6.029,CST-1368DR,4104,4365,11270,01.305,553
2023-11-22T03:58:09,42.805,6.029,CST-1368DR,4104,4364,11269,01.305,553
2023-11-22T04:01:10,42.805,6.029,CST-1368DR,4104,4363,11266,01.306,553
2023-11-22T04:04:12,42.805,6.029,CST-1368DR,4104,4364,11269,01.305,553
2023-11-22T04:07:14,42.805,6.029,CST-1368DR,4104,4366,11273,01.304,553
2023-11-22T04:10:15,42.805,6.029,CST-1368DR,4104,4364,11269,01.305,552
2023-11-22T04:13:17,42.805,6.029,CST-1368DR,4104,4363,11266,01.306,553
2023-11-22T04:16:18,42.805,6.029,CST-1368DR,4104,4363,11266,01.306,553
2023-11-22T04:19:20,42.805,6.029,CST-1368DR,4104,4365,11270,01.305,553
2023-11-22T04:22:21,42.805,6.029,CST-1368DR,4104,4364,11269,01.305,553
2023-11-22T04:25:23,42.805,6.029,CST-1368DR,4104,4363,11264,01.307,553
2023-11-22T04:28:25,42.805,6.029,CST-1368DR,4104,4363,11264,01.307,553
2023-11-22T04:31:26,42.805,6.029,CST-1368DR,4104,4363,11266,01.306,553
2023-11-22T04:34:28,42.805,6.029,CST-1368DR,4104,4365,11271,01.304,553
2023-11-22T04:37:29,42.805,6.029,CST-1368DR,4104,4361,11259,01.309,553
2023-11-22T04:40:31,42.805,6.029,CST-1368DR,4104,4362,11262,01.307,553
2023-11-22T04:43:33,42.805,6.029,CST-1368DR,4104,4364,11268,01.305,553
2023-11-22T04:46:34,42.805,6.029,CST-1368DR,4104,4364,11267,01.306,553
2023-11-22T04:49:36,42.805,6.029,CST-1368DR,4104,4364,11268,01.305,553
2023-11-22T04:52:37,42.805,6.029,CST-1368DR,4104,4364,11268,01.305,553
2023-11-22T04:55:39,42.805,6.029,CST-1368DR,4104,4364,11267,01.306,553
2023-11-22T04:58:40,42.805,6.029,CST-1368DR,4104,4365,11271,01.304,553
2023-11-22T05:01:42,42.805,6.029,CST-1368DR,4104,4364,11269,01.305,553
2023-11-22T05:04:44,42.805,6.029,CST-1368DR,4104,4363,11266,01.306,553
2023-11-22T05:07:45,42.805,6.029,CST-1368DR,4104,4365,11270,01.305,553
2023-11-22T05:10:47,42.805,6.029,CST-1368DR,4104,4364,11269,01.305,553
2023-11-22T05:13:48,42.805,6.029,CST-1368DR,4104,4362,11264,01.307,553
2023-11-22T05:16:50,42.805,6.029,CST-1368DR,4104,4360,11259,01.309,553
2023-11-22T05:19:51,42.805,6.029,CST-1368DR,4104,4363,11264,01.307,553
2023-11-22T05:22:53,42.805,6.029,CST-1368DR,4104,4362,11264,01.307,553
2023-11-22T05:25:55,42.805,6.029,CST-1368DR,4104,4363,11264,01.307,553
2023-11-22T05:28:56,42.805,6.029,CST-1368DR,4104,4363,11265,01.306,553
2023-11-22T05:31:58,42.805,6.029,CST-1368DR,4104,4364,11268,01.305,553
2023-11-22T05:35:00,42.805,6.029,CST-1368DR,4104,4363,11264,01.307,553
2023-11-22T05:38:01,42.805,6.029,CST-1368DR,4104,4362,11263,01.307,553
2023-11-22T05:41:03,42.805,6.029,CST-1368DR,4104,4360,11259,01.309,553
2023-11-22T05:44:04,42.805,6.029,CST-1368DR,4104,4361,11260,01.308,553
2023-11-22T05:47:06,42.805,6.029,CST-1368DR,4104,4362,11262,01.307,553
2023-11-22T05:50:08,42.805,6.029,CST-1368DR,4104,4362,11264,01.307,553
2023-11-22T05:53:09,42.805,6.029,CST-1368DR,4104,4362,11263,01.307,553
2023-11-22T05:56:11,42.805,6.029,CST-1368DR,4104,4362,11262,01.307,553
2023-11-22T05:59:12,42.805,6.029,CST-1368DR,4104,4363,11265,01.306,553
2023-11-22T06:02:14,42.805,6.029,CST-1368DR,4104,4363,11266,01.306,553
2023-11-22T06:05:16,42.805,6.029,CST-1368DR,4104,4364,11268,01.305,553
2023-11-22T06:08:17,42.805,6.029,CST-1368DR,4104,4362,11264,01.307,553
2023-11-22T06:11:19,42.805,6.029,CST-1368DR,4104,4364,11268,01.305,553
2023-11-22T06:14:20,42.805,6.029,CST-1368DR,4104,4362,11264,01.307,553
2023-11-22T06:17:22,42.805,6.029,CST-1368DR,4104,4365,11270,01.305,553
2023-11-22T06:20:23,42.805,6.029,CST-1368DR,4104,4363,11264,01.307,553
2023-11-22T06:23:25,42.805,6.029,CST-1368DR,4104,4364,11268,01.305,553
2023-11-22T06:26:27,42.805,6.029,CST-1368DR,4104,4363,11265,01.306,553
2023-11-22T06:29:28,42.805,6.029,CST-1368DR,4104,4359,11256,01.310,553
2023-11-22T06:32:30,42.805,6.029,CST-1368DR,4104,4362,11262,01.307,553
2023-11-22T06:35:31,42.805,6.029,CST-1368DR,4104,4362,11262,01.307,553
2023-11-22T06:38:33,42.805,6.029,CST-1368DR,4104,4362,11262,01.307,553
2023-11-22T06:41:35,42.805,6.029,CST-1368DR,4104,4362,11262,01.307,553
2023-11-22T06:44:36,42.805,6.029,CST-1368DR,4104,4361,11260,01.308,553
2023-11-22T06:47:38,42.805,6.029,CST-1368DR,4104,4363,11264,01.307,553
2023-11-22T06:50:39,42.805,6.029,CST-1368DR,4104,4362,11264,01.307,553
2023-11-22T06:53:41,42.805,6.029,CST-1368DR,4104,4361,11261,01.308,553
2023-11-22T06:56:42,42.805,6.029,CST-1368DR,4104,4359,11254,01.310,553
2023-11-22T06:59:44,42.805,6.029,CST-1368DR,4104,4361,11261,01.308,553
2023-11-22T07:02:46,42.805,6.029,CST-1368DR,4104,4362,11262,01.307,553
2023-11-22T07:05:47,42.805,6.029,CST-1368DR,4104,4365,11270,01.305,553
2023-11-22T07:08:49,42.805,6.029,CST-1368DR,4104,4362,11262,01.307,553
2023-11-22T07:11:50,42.805,6.029,CST-1368DR,4104,4362,11263,01.307,553
2023-11-22T07:14:52,42.805,6.029,CST-1368DR,4104,4363,11264,01.307,553
2023-11-22T07:17:53,42.805,6.029,CST-1368DR,4104,4361,11261,01.308,553
2023-11-22T07:20:55,42.805,6.029,CST-1368DR,4104,4360,11258,01.309,553
2023-11-22T07:23:57,42.805,6.029,CST-1368DR,4104,4361,11261,01.308,553
2023-11-22T07:26:58,42.805,6.029,CST-1368DR,4104,4361,11260,01.308,553
2023-11-22T07:30:00,42.805,6.029,CST-1368DR,4104,4361,11259,01.309,553
2023-11-22T07:33:01,42.805,6.029,CST-1368DR,4104,4363,11264,01.307,553
2023-11-22T07:36:03,42.805,6.029,CST-1368DR,4104,4362,11262,01.307,553
2023-11-22T07:39:05,42.805,6.029,CST-1368DR,4104,4359,11255,01.310,553
2023-11-22T07:42:06,42.805,6.029,CST-1368DR,4104,4363,11264,01.307,553
2023-11-22T07:45:08,42.805,6.029,CST-1368DR,4104,4363,11265,01.306,553
2023-11-22T07:48:09,42.805,6.029,CST-1368DR,4104,4362,11262,01.307,553
2023-11-22T07:51:11,42.805,6.029,CST-1368DR,4104,4350,11233,01.318,553
2023-11-22T07:54:13,42.805,6.029,CST-1368DR,4104,4362,11264,01.307,553
2023-11-22T07:57:14,42.805,6.029,CST-1368DR,4104,4362,11264,01.307,553
2023-11-22T08:00:16,42.805,6.029,CST-1368DR,4104,4364,11268,01.305,553
2023-11-22T08:03:17,42.805,6.029,CST-1368DR,4104,4365,11270,01.305,553
2023-11-22T08:06:19,42.805,6.029,CST-1368DR,4104,4363,11265,01.306,553
2023-11-22T08:09:20,42.805,6.029,CST-1368DR,4104,4361,11261,01.308,553
2023-11-22T08:12:22,42.805,6.029,CST-1368DR,4104,4364,11268,01.305,553
2023-11-22T08:15:24,42.805,6.029,CST-1368DR,4104,4348,11228,01.320,553
2023-11-22T08:18:25,42.805,6.029,CST-1368DR,4104,4349,11228,01.320,553
2023-11-22T08:21:27,42.805,6.029,CST-1368DR,4104,4348,11227,01.320,553
2023-11-22T08:24:28,42.805,6.029,CST-1368DR,4104,4358,11252,01.311,553
2023-11-22T08:27:30,42.805,6.029,CST-1368DR,4104,4358,11252,01.311,553
2023-11-22T08:30:31,42.805,6.029,CST-1368DR,4104,4357,11250,01.312,553
2023-11-22T08:33:33,42.805,6.029,CST-1368DR,4104,4357,11251,01.311,553
2023-11-22T08:36:35,42.805,6.029,CST-1368DR,4104,4358,11253,01.311,553
2023-11-22T08:39:36,42.805,6.029,CST-1368DR,4104,4357,11251,01.311,553
2023-11-22T08:42:38,42.805,6.029,CST-1368DR,4104,4358,11251,01.311,553
2023-11-22T08:45:39,42.805,6.029,CST-1368DR,4104,4360,11258,01.309,553
2023-11-22T08:48:41,42.805,6.029,CST-1368DR,4104,4359,11256,01.310,553
2023-11-22T08:51:43,42.805,6.029,CST-1368DR,4104,4359,11256,01.310,553
2023-11-22T08:54:44,42.805,6.029,CST-1368DR,4104,4359,11255,01.310,553
2023-11-22T08:57:46,42.805,6.029,CST-1368DR,4104,4361,11261,01.308,553
2023-11-22T09:00:47,42.805,6.029,CST-1368DR,4104,4359,11256,01.310,553
2023-11-22T09:03:49,42.805,6.029,CST-1368DR,4104,4358,11253,01.311,553
2023-11-22T09:06:50,42.805,6.029,CST-1368DR,4104,4360,11259,01.309,553
2023-11-22T09:09:52,42.805,6.029,CST-1368DR,4104,4361,11259,01.309,553
2023-11-22T09:12:54,42.805,6.029,CST-1368DR,4104,4361,11261,01.308,553
2023-11-22T09:15:55,42.805,6.029,CST-1368DR,4104,4359,11255,01.310,553
2023-11-22T09:18:57,42.805,6.029,CST-1368DR,4104,4359,11254,01.310,553
2023-11-22T09:21:58,42.805,6.029,CST-1368DR,4104,4359,11255,01.310,553
2023-11-22T09:25:00,42.805,6.029,CST-1368DR,4104,4359,11256,01.310,553
2023-11-22T09:28:02,42.805,6.029,CST-1368DR,4104,4359,11255,01.310,553
2023-11-22T09:31:06,42.805,6.029,CST-1368DR,4104,4358,11253,01.311,553
2023-11-22T09:34:07,42.805,6.029,CST-1368DR,4104,4357,11251,01.311,553
2023-11-22T09:37:09,42.805,6.029,CST-1368DR,4104,4359,11255,01.310,553
2023-11-22T09:40:10,42.805,6.029,CST-1368DR,4104,4358,11251,01.311,553
2023-11-22T09:43:12,42.805,6.029,CST-1368DR,4104,4356,11246,01.313,553
2023-11-22T09:46:14,42.805,6.029,CST-1368DR,4104,4357,11251,01.311,553
2023-11-22T09:49:15,42.805,6.029,CST-1368DR,4104,4359,11254,01.310,553
2023-11-22T09:52:17,42.805,6.029,CST-1368DR,4104,4358,11253,01.311,553
2023-11-22T09:55:18,42.805,6.029,CST-1368DR,4104,4357,11250,01.312,553
2023-11-22T09:58:20,42.805,6.029,CST-1368DR,4104,4357,11250,01.312,553
2023-11-22T10:01:21,42.805,6.029,CST-1368DR,4104,4358,11251,01.311,553
2023-11-22T10:04:23,42.805,6.029,CST-1368DR,4104,4358,11253,01.311,553
2023-11-22T10:07:25,42.805,6.029,CST-1368DR,4104,4356,11246,01.313,553
2023-11-22T10:10:26,42.805,6.029,CST-1368DR,4104,4356,11248,01.312,553
2023-11-22T10:13:28,42.805,6.029,CST-1368DR,4104,4357,11250,01.312,553
2023-11-22T10:16:29,42.805,6.029,CST-1368DR,4104,4357,11250,01.312,553
2023-11-22T10:19:31,42.805,6.029,CST-1368DR,4104,4359,11255,01.310,553
2023-11-22T10:22:33,42.805,6.029,CST-1368DR,4104,4358,11253,01.311,553
2023-11-22T10:25:34,42.805,6.029,CST-1368DR,4104,4359,11254,01.310,553
2023-11-22T10:28:36,42.805,6.029,CST-1368DR,4104,4359,11254,01.310,553
2023-11-22T10:31:37,42.805,6.029,CST-1368DR,4104,4359,11254,01.310,553
2023-11-22T10:34:39,42.805,6.029,CST-1368DR,4104,4359,11254,01.310,553
2023-11-22T10:37:40,42.805,6.029,CST-1368DR,4104,4361,11260,01.308,553
2023-11-22T10:40:42,42.805,6.029,CST-1368DR,4104,4359,11254,01.310,553
2023-11-22T10:43:44,42.805,6.029,CST-1368DR,4104,4359,11255,01.310,553
2023-11-22T10:46:45,42.805,6.029,CST-1368DR,4104,4354,11242,01.315,553
2023-11-22T10:49:47,42.805,6.029,CST-1368DR,4104,4358,11251,01.311,553
2023-11-22T10:52:48,42.805,6.029,CST-1368DR,4104,4358,11253,01.311,553
2023-11-22T10:55:50,42.805,6.029,CST-1368DR,4104,4355,11246,01.313,553
2023-11-22T10:58:51,42.805,6.029,CST-1368DR,4104,4356,11247,01.313,553
2023-11-22T11:01:53,42.805,6.029,CST-1368DR,4104,4356,11248,01.312,553
2023-11-22T11:04:55,42.805,6.029,CST-1368DR,4104,4359,11255,01.310,553
2023-11-22T11:07:56,42.805,6.029,CST-1368DR,4104,4358,11252,01.311,553
2023-11-22T11:10:58,42.805,6.029,CST-1368DR,4104,4360,11259,01.309,553
2023-11-22T11:13:59,42.805,6.029,CST-1368DR,4104,4361,11260,01.308,553
2023-11-22T11:17:01,42.805,6.029,CST-1368DR,4104,4360,11257,01.309,553
2023-11-22T11:20:03,42.805,6.029,CST-1368DR,4104,4358,11253,01.311,553
2023-11-22T11:23:04,42.805,6.029,CST-1368DR,4104,4358,11253,01.311,553
2023-11-22T11:26:06,42.805,6.029,CST-1368DR,4104,4356,11246,01.313,553
2023-11-22T11:29:07,42.805,6.029,CST-1368DR,4104,4358,11251,01.311,553
2023-11-22T11:32:09,42.805,6.029,CST-1368DR,4104,4356,11248,01.312,553
2023-11-22T11:35:11,42.805,6.029,CST-1368DR,4104,4358,11253,01.311,553
2023-11-22T11:38:12,42.805,6.029,CST-1368DR,4104,4359,11254,01.310,553
2023-11-22T11:41:14,42.805,6.029,CST-1368DR,4104,4361,11261,01.308,553
2023-11-22T11:44:15,42.805,6.029,CST-1368DR,4104,4360,11257,01.309,553
2023-11-22T11:47:17,42.805,6.029,CST-1368DR,4104,4357,11250,01.312,553
2023-11-22T11:50:18,42.805,6.029,CST-1368DR,4104,4359,11255,01.310,553
2023-11-22T11:53:20,42.805,6.029,CST-1368DR,4104,4359,11255,01.310,553
2023-11-22T11:56:22,42.805,6.029,CST-1368DR,4104,4360,11257,01.309,553
2023-11-22T11:59:23,42.805,6.029,CST-1368DR,4104,4361,11261,01.308,553
2023-11-22T12:02:25,42.805,6.029,CST-1368DR,4104,4361,11261,01.308,553
2023-11-22T12:05:26,42.805,6.029,CST-1368DR,4104,4360,11258,01.309,553
2023-11-22T12:08:28,42.805,6.029,CST-1368DR,4104,4357,11250,01.312,553
2023-11-22T12:11:30,42.805,6.029,CST-1368DR,4104,4360,11259,01.309,553
2023-11-22T12:14:31,42.805,6.029,CST-1368DR,4104,4361,11260,01.308,553
2023-11-22T12:17:33,42.805,6.029,CST-1368DR,4104,4360,11258,01.309,553
2023-11-22T12:20:34,42.805,6.029,CST-1368DR,4104,4359,11256,01.310,553
2023-11-22T12:23:36,42.805,6.029,CST-1368DR,4104,4359,11255,01.310,553
2023-11-22T12:26:37,42.805,6.029,CST-1368DR,4104,4362,11262,01.307,553
2023-11-22T12:29:39,42.805,6.029,CST-1368DR,4104,4361,11261,01.308,553
2023-11-22T12:32:41,42.805,6.029,CST-1368DR,4104,4362,11262,01.307,553
2023-11-22T12:35:42,42.805,6.029,CST-1368DR,4104,4361,11261,01.308,553
2023-11-22T12:38:44,42.805,6.029,CST-1368DR,4104,4361,11261,01.308,553
2023-11-22T12:41:45,42.805,6.029,CST-1368DR,4104,4361,11260,01.308,553
2023-11-22T12:44:47,42.805,6.029,CST-1368DR,4104,4362,11262,01.307,553
2023-11-22T12:47:48,42.805,6.029,CST-1368DR,4104,4362,11262,01.307,553
2023-11-22T12:50:50,42.805,6.029,CST-1368DR,4103,4358,11255,01.310,553
2023-11-22T12:53:52,42.805,6.029,CST-1368DR,4104,4361,11261,01.308,553
2023-11-22T12:56:53,42.805,6.029,CST-1368DR,4104,4362,11263,01.307,553
2023-11-22T12:59:55,42.805,6.029,CST-1368DR,4104,4360,11257,01.309,553
2023-11-22T13:02:56,42.805,6.029,CST-1368DR,4104,4361,11259,01.309,553
2023-11-22T13:05:58,42.805,6.029,CST-1368DR,4104,4362,11263,01.307,553
2023-11-22T13:09:00,42.805,6.029,CST-1368DR,4104,4362,11263,01.307,553
2023-11-22T13:12:01,42.805,6.029,CST-1368DR,4103,4358,11255,01.310,553
2023-11-22T13:15:03,42.805,6.029,CST-1368DR,4104,4362,11262,01.307,552
2023-11-22T13:18:04,42.805,6.029,CST-1368DR,4104,4361,11260,01.308,553
2023-11-22T13:21:06,42.805,6.029,CST-1368DR,4104,4361,11261,01.308,553
2023-11-22T13:24:07,42.805,6.029,CST-1368DR,4104,4362,11262,01.307,553
2023-11-22T13:27:09,42.805,6.029,CST-1368DR,4104,4361,11261,01.308,553
2023-11-22T13:30:12,42.805,6.029,CST-1368DR,4104,4357,11250,01.312,553
2023-11-22T13:33:14,42.805,6.029,CST-1368DR,4104,4358,11253,01.311,553
2023-11-22T13:36:15,42.805,6.029,CST-1368DR,4104,4355,11246,01.313,553
2023-11-22T13:39:17,42.805,6.029,CST-1368DR,4104,4357,11251,01.311,553
2023-11-22T13:42:18,42.805,6.029,CST-1368DR,4104,4359,11256,01.310,553
2023-11-22T13:45:20,42.805,6.029,CST-1368DR,4104,4359,11256,01.310,553
2023-11-22T13:48:22,42.805,6.029,CST-1368DR,4104,4359,11254,01.310,553
2023-11-22T13:51:23,42.805,6.029,CST-1368DR,4103,4356,11249,01.312,553
2023-11-22T13:54:25,42.805,6.029,CST-1368DR,4103,4355,11246,01.313,553
2023-11-22T13:57:26,42.805,6.029,CST-1368DR,4104,4359,11254,01.310,553
2023-11-22T14:00:28,42.805,6.029,CST-1368DR,4104,4357,11250,01.312,553
2023-11-22T14:03:29,42.805,6.029,CST-1368DR,4104,4358,11253,01.311,553
2023-11-22T14:06:31,42.805,6.029,CST-1368DR,4104,4359,11255,01.310,553
2023-11-22T14:09:33,42.805,6.029,CST-1368DR,4103,4358,11255,01.310,553
2023-11-22T14:12:34,42.805,6.029,CST-1368DR,4104,4359,11255,01.310,553
2023-11-22T14:15:36,42.805,6.029,CST-1368DR,4104,4357,11251,01.311,553
2023-11-22T14:18:37,42.805,6.029,CST-1368DR,4104,4358,11253,01.311,553
2023-11-22T14:21:39,42.805,6.029,CST-1368DR,4104,4357,11250,01.312,553
2023-11-22T14:24:41,42.805,6.029,CST-1368DR,4104,4358,11253,01.311,553
2023-11-22T14:27:42,42.805,6.029,CST-1368DR,4104,4355,11244,01.314,553
2023-11-22T14:30:44,42.805,6.029,CST-1368DR,4103,4355,11246,01.313,553
2023-11-22T14:33:45,42.805,6.029,CST-1368DR,4104,4357,11250,01.312,553
2023-11-22T14:36:47,42.805,6.029,CST-1368DR,4104,4357,11250,01.312,553
2023-11-22T14:39:48,42.805,6.029,CST-1368DR,4104,4357,11251,01.311,553
2023-11-22T14:42:50,42.805,6.029,CST-1368DR,4104,4359,11255,01.310,553
2023-11-22T14:45:52,42.805,6.029,CST-1368DR,4104,4359,11254,01.310,553
2023-11-22T14:48:53,42.805,6.029,CST-1368DR,4104,4357,11250,01.312,553
2023-11-22T14:51:55,42.805,6.029,CST-1368DR,4104,4359,11254,01.310,553
2023-11-22T14:54:56,42.805,6.029,CST-1368DR,4104,4356,11248,01.312,553
2023-11-22T14:57:58,42.805,6.029,CST-1368DR,4103,4357,11253,01.311,553
2023-11-22T15:00:59,42.805,6.029,CST-1368DR,4104,4357,11250,01.312,553
2023-11-22T15:04:01,42.805,6.029,CST-1368DR,4104,4357,11250,01.312,553
2023-11-22T15:07:03,42.805,6.029,CST-1368DR,4104,4358,11253,01.311,553
2023-11-22T15:10:04,42.805,6.029,CST-1368DR,4104,4356,11248,01.312,553
2023-11-22T15:13:06,42.805,6.029,CST-1368DR,4104,4358,11252,01.311,553
2023-11-22T15:16:07,42.805,6.029,CST-1368DR,4104,4358,11251,01.311,553
2023-11-22T15:19:09,42.805,6.029,CST-1368DR,4104,4359,11255,01.310,553
2023-11-22T15:22:11,42.805,6.029,CST-1368DR,4104,4358,11252,01.311,553
2023-11-22T15:25:12,42.805,6.029,CST-1368DR,4104,4356,11248,01.312,553
2023-11-22T15:28:14,42.805,6.029,CST-1368DR,4104,4354,11242,01.315,553
2023-11-22T15:31:15,42.805,6.029,CST-1368DR,4104,4359,11255,01.310,553
2023-11-22T15:34:17,42.805,6.029,CST-1368DR,4104,4355,11245,01.313,553
2023-11-22T15:37:18,42.805,6.029,CST-1368DR,4104,4358,11253,01.311,553
2023-11-22T15:40:20,42.805,6.029,CST-1368DR,4104,4355,11245,01.313,553
2023-11-22T15:43:22,42.805,6.029,CST-1368DR,4104,4356,11248,01.312,553
2023-11-22T15:46:23,42.805,6.029,CST-1368DR,4104,4369,11280,01.301,553
2023-11-22T15:49:25,42.805,6.029,CST-1368DR,4104,4360,11257,01.309,553
2023-11-22T15:52:26,42.805,6.029,CST-1368DR,4104,4358,11253,01.311,553
2023-11-22T15:55:28,42.805,6.029,CST-1368DR,4104,4359,11255,01.310,553
2023-11-22T15:58:29,42.805,6.029,CST-1368DR,4104,4358,11252,01.311,553
2023-11-22T16:01:31,42.805,6.029,CST-1368DR,4104,4354,11243,01.314,553
2023-11-22T16:04:33,42.805,6.029,CST-1368DR,4104,4358,11251,01.311,553
2023-11-22T16:07:34,42.805,6.029,CST-1368DR,4104,4358,11253,01.311,553
2023-11-22T16:10:36,42.805,6.029,CST-1368DR,4104,4357,11250,01.312,553
2023-11-22T16:13:37,42.805,6.029,CST-1368DR,4104,4358,11253,01.311,553
2023-11-22T16:16:39,42.805,6.029,CST-1368DR,4103,4357,11253,01.311,553
2023-11-22T16:19:40,42.805,6.029,CST-1368DR,4104,4355,11246,01.313,553
2023-11-22T16:22:42,42.805,6.029,CST-1368DR,4104,4356,11248,01.312,553
2023-11-22T16:25:44,42.805,6.029,CST-1368DR,4104,4354,11243,01.314,553
2023-11-22T16:28:45,42.805,6.029,CST-1368DR,4104,4356,11248,01.312,553
2023-11-22T16:31:47,42.805,6.029,CST-1368DR,4104,4354,11243,01.314,553
2023-11-22T16:34:48,42.805,6.029,CST-1368DR,4104,4356,11246,01.313,553
2023-11-22T16:37:50,42.805,6.029,CST-1368DR,4103,4352,11239,01.316,553